Regional Weather Roundup
Issued by NWS

Home | Current Version | Previous Version | Graphics & Text | Print | Product List | Glossary On
Versions: 1 2 3 4 5 6 7 8 9 10 11 12 13 14 15 16 17 18 19 20 21 22 23 24 25 26 27 28 29 30 31 32 33 34 35 36 37 38 39 40 41 42 43 44 45 46 47 48 49 50
000
ASUS45 KTFX 270019
RWRMT
MONTANA HOURLY WEATHER ROUNDUP
NATIONAL WEATHER SERVICE GREAT FALLS MT
519 PM MST MON JAN 26 2015

NOTE: "FAIR" INDICATES FEW OR NO CLOUDS BELOW 12000 FEET WITH NO
SIGNIFICANT WEATHER AND/OR OBSTRUCTIONS TO VISIBILITY.

* THESE STATIONS ARE NOT UNDER NWS QUALITY CONTROL. THEY DO NOT
   REPORT WEATHER SUCH AS PRECIPITATION OR FOG.

MTZ001>007-043-270100-
WEST OF THE DIVIDE
CITY           SKY/WX    TMP DP  RH WIND       PRES   REMARKS
KALISPELL      CLEAR     37  30  76 CALM      29.99F
MISSOULA       CLEAR     39  30  70 SE3       30.07F
BUTTE          CLEAR     48  30  50 VRB3      30.12S
MULLAN PASS    PTCLDY    46  27  48 SW7G16    30.09S
* ANACONDA     CLEAR     61  27  27 S9         N/A
* ESSEX        N/A       40  31  70 NE1        N/A
* EUREKA APT   CLEAR     45  34  65 CALM       N/A
* HAMILTON APT CLEAR     52  34  50 NE3       30.04S
* LIBBY APT    CLEAR     41  34  76 CALM      30.00R
* LINCOLN      N/A       59  28  31 SE3        N/A
* LOOKOUT PASS N/A       51  31  46 SW1        N/A
* POLSON       N/A       48  31  52 SE3        N/A
* RONAN APT    CLEAR     41  41 100 N/A        N/A
* SEELEY LAKE  N/A       57  29  34 S2         N/A
* THOMP F APT  CLEAR     48  33  56 N/A        N/A
$$

MTZ008-052>055-270100-
SOUTHWEST MONTANA
CITY           SKY/WX    TMP DP  RH WIND       PRES   REMARKS
BOZEMAN        CLEAR     45  32  60 NE3       30.09S
DILLON         PTCLDY    46  30  54 SW13      30.12F
* W YELLOWSTON CLEAR     38  29  70 NW2        N/A
* THREE FORKS  CLEAR     54  37  53 N/A        N/A
* BOULDER HILL N/A       50  26  39 SW7        N/A
* MONIDA PASS  N/A       36  33  89 E11        N/A   WCI  28
* RAYNOLDS PAS N/A       37  20  50 S19        N/A   WCI  27
* WHITEHALL    N/A       61  29  30 SW11G22    N/A
* WISE RIVER   N/A       52  29  41 W4         N/A
$$

MTZ009>010-012-014-046-048-049-054-270100-
EAST SLOPES AND CENTRAL MONTANA
CITY           SKY/WX    TMP DP  RH WIND       PRES   REMARKS
GREAT FALLS    PTCLDY    59  30  33 SW13      29.94R
HELENA         CLEAR     48  36  63 CALM      30.03S
MALMSTROM AFB  PTCLDY    59  32  36 SW20      29.92F
* CONRAD       PTCLDY    66  36  33 W6         N/A
* DEARBORN     N/A       59  30  33 S14        N/A
* EAST GLACIER N/A       55  25  31 W22G31     N/A
* MONARCH      N/A       59  19  21 SW12G20    N/A
* PENDROY      N/A       61  25  25 W7G12      N/A
* ROGERS PASS  N/A       55  23  29 E15G26     N/A
* SWEET GRASS  N/A       58  30  35 SW19G24    N/A
* WHITE SULPH  N/A       56  29  36 S7G17      N/A
$$

MTZ011-013-016-021-035-040-045-047-050-051-270100-
NORTH CENTRAL MONTANA
CITY           SKY/WX    TMP DP  RH WIND       PRES   REMARKS
HAVRE          PTCLDY    48  36  63 SW20      29.84F
LEWISTOWN      PTCLDY    48  32  54 SW15      29.97F
* N BAR RANCH  CLEAR     59  28  31 VRB3      29.99F
* CHINOOK      PTCLDY    48  36  63 E5        29.85F
* CHESTER      N/A       52  35  52 SE4        N/A
* DENTON       N/A       58  29  33 S8         N/A
* GEYSER       N/A       63  23  22 SW11G17    N/A
* JUDITH GAP   N/A       56  28  34 SW8        N/A
* LOMA         N/A       61  37  41 W5         N/A
$$

MTZ017>020-022>027-061-062-270100-
NORTHEAST MONTANA
CITY           SKY/WX    TMP DP  RH WIND       PRES   REMARKS
GLASGOW        PTCLDY    46  36  68 CALM      29.88F
GLENDIVE       PTCLDY    45  36  71 CALM      29.92F
JORDAN         MOCLDY    43  36  76 NE3       29.90F
SIDNEY         CLOUDY    43  34  71 CALM      29.93F
WOLF POINT     MOCLDY    46  36  68 E3        29.90S
* BEAVER HILL  N/A       46  36  68 S12        N/A
* CIRCLE       N/A       52  39  61 W4         N/A
* LINDSAY DVD  N/A       50  33  52 W6         N/A
* NAVAJO       N/A       38  33  82 SW7        N/A   WCI  33
* PLENTYWOOD A MOCLDY    39  36  89 E6        29.90S WCI  35
* POPLAR APT   MOCLDY    46  37  71 N/A       29.89F
* SACO         N/A       47  36  66 S6         N/A
$$

MTZ028>042-056>058-270100-
SOUTHCENTRAL AND SOUTHEAST MONTANA
CITY           SKY/WX    TMP DP  RH WIND       PRES   REMARKS
BAKER          CLEAR     45  36  71 CALM      29.95S
BILLINGS       FAIR      55  28  35 SW22      30.01F
LIVINGSTON     CLEAR     61  27  27 SW24G37   30.04F
MILES CITY     PTCLDY    52  34  50 W5        29.93F
* BIG TIMBER A CLEAR     57  28  33 W10       30.05F
* FORSYTH APT  CLOUDY    57  30  36 W6        29.93F
* LAUREL APT   CLEAR     54  27  35 S14G25     N/A
* ROUNDUP APT  PTCLDY    63  30  29 S9         N/A
* ALZADA       N/A       54  33  45 SW5        N/A
* HYSHAM       N/A       56  26  32 W3G8       N/A
* LAME DEER    N/A       59  28  31 W12        N/A
* REED POINT   N/A       56  35  45 E2         N/A
* ROSCOE HILL  N/A       63  16  16 S8G20      N/A
$$

REGIONAL REPORTS...DAKOTAS
CITY           SKY/WX    TMP DP  RH WIND       PRES   REMARKS
WILLISTON      MOCLDY    41  32  70 SW3       29.92S
DICKINSON      MOCLDY    39  30  70 S6        29.92S WCI  35
BEACH          CLEAR     39  36  89 E3        29.93F
CROSBY         CLEAR     32  32 100 CALM      29.92S
TIOGA          CLEAR     34  34 100 SW3       29.95R
WATFORD CITY   CLEAR     37  32  82 S5        29.91S WCI  33
BISMARCK       MOCLDY    36  30  79 SE5       29.97S WCI  32
GRAND FORKS    MOCLDY    28  25  89 N7        29.97R WCI  21
FARGO          MOCLDY    30  27  89 N12       29.96R WCI  20
BUFFALO SD     CLEAR     55  34  45 W8        29.90F
RAPID CITY     CLEAR     50  30  46 NE12      30.00F
$$

REGIONAL REPORTS...WYOMING/IDAHO/WASHINGTON
CITY           SKY/WX    TMP DP  RH WIND       PRES   REMARKS
GILLETTE       CLEAR     54  34  47 SW16      30.06F
SHERIDAN       CLEAR     52  30  43 SW8       30.03F
CODY           CLEAR     41  34  76 CALM      30.14S
YELLOWSTONE LA CLEAR     28  23  81 CALM      30.35R
SALMON         CLOUDY   N/A N/A N/A CALM      30.23F VSB M1/4
MULLAN PASS    PTCLDY    46  27  48 SW7G16    30.09S
SAND POINT     FOG       34  34 100 CALM      30.04S VSB M1/4
SPOKANE        MOCLDY    48  43  83 NE3       30.01S
$$

REGIONAL REPORTS...ALBERTA
CITY           SKY/WX    TMP DP  RH WIND       PRES   REMARKS
CALGARY        MOCLDY    41  32  70 NE8       29.75S
LETHBRIDGE     MOCLDY    54  36  51 S18       29.79S
MEDICINE HAT   MOCLDY    48  37  66 SE6       29.78F
EDMONTON       CLOUDY    36  32  85 S6        29.78F WCI  31
WATERTON GATE  N/A       55  27  34 SW9        N/A
CARDSTON       N/A       54  34  47 SE7        N/A
MILK RIVER     N/A       54  36  51 SW9        N/A
$$

REGIONAL REPORTS...SASKATCHEWAN
CITY           SKY/WX    TMP DP  RH WIND       PRES   REMARKS
SWIFT CURRENT  CLEAR     37  32  82 S7        29.82S WCI  32
MOOSE JAW      FAIR      37  32  82 S8        29.87F WCI  31
REGINA         MOCLDY    34  30  85 SE8       29.88S WCI  27
VAL MARIE      N/A       39  36  89 SW6        N/A   WCI  35
ASSINIBOIA     N/A       39  32  76 S6         N/A   WCI  35
CORONACH       N/A       37  32  82 SE2        N/A

$$




USA.gov is the U.S. government's official web portal to all federal, state and local government web resources and services.